TimeEDT,TemperatureF,Dew PointF,Humidity,Sea Level PressureIn,VisibilityMPH,Wind Direction,Wind SpeedMPH,Gust SpeedMPH,PrecipitationIn,Events,Conditions,WindDirDegrees,DateUTC
12:15 AM,75.2,69.8,83,29.81,-9999.0,Calm,Calm,-,N/A,,Scattered Clouds,0,2013-06-26 04:15:00
12:35 AM,75.2,69.8,83,29.81,-9999.0,Calm,Calm,-,N/A,,Scattered Clouds,0,2013-06-26 04:35:00
12:55 AM,73.4,69.8,88,29.81,-9999.0,SW,4.6,-,N/A,,Unknown,230,2013-06-26 04:55:00
1:15 AM,75.2,68.0,78,29.79,-9999.0,SW,3.5,-,N/A,,Clear,220,2013-06-26 05:15:00
1:35 AM,73.4,68.0,83,29.79,-9999.0,WSW,4.6,-,N/A,,Unknown,250,2013-06-26 05:35:00
1:55 AM,73.4,68.0,83,29.78,-9999.0,WSW,4.6,-,N/A,,Clear,250,2013-06-26 05:55:00
2:15 AM,73.4,68.0,83,29.78,-9999.0,West,3.5,-,N/A,,Clear,270,2013-06-26 06:15:00
2:35 AM,73.4,68.0,83,29.77,-9999.0,Calm,Calm,-,N/A,,Clear,0,2013-06-26 06:35:00
2:55 AM,73.4,68.0,83,29.77,-9999.0,Calm,Calm,-,N/A,,Scattered Clouds,0,2013-06-26 06:55:00
3:15 AM,73.4,68.0,83,29.78,-9999.0,Calm,Calm,-,N/A,,Unknown,0,2013-06-26 07:15:00
3:35 AM,71.6,69.8,94,29.77,-9999.0,Calm,Calm,-,N/A,,Unknown,0,2013-06-26 07:35:00
3:55 AM,71.6,69.8,94,29.78,-9999.0,Calm,Calm,-,N/A,,Unknown,0,2013-06-26 07:55:00
4:15 AM,73.4,69.8,88,29.79,-9999.0,Calm,Calm,-,N/A,,Unknown,0,2013-06-26 08:15:00
4:35 AM,71.6,69.8,94,29.79,-9999.0,Calm,Calm,-,N/A,,Unknown,0,2013-06-26 08:35:00
4:55 AM,73.4,68.0,83,29.79,-9999.0,Calm,Calm,-,N/A,,Clear,0,2013-06-26 08:55:00
5:15 AM,71.6,69.8,94,29.79,-9999.0,Calm,Calm,-,N/A,,Unknown,0,2013-06-26 09:15:00
5:35 AM,71.6,69.8,94,29.79,-9999.0,Calm,Calm,-,N/A,,Unknown,0,2013-06-26 09:35:00
5:55 AM,73.4,69.8,88,29.80,-9999.0,Calm,Calm,-,N/A,,Unknown,0,2013-06-26 09:55:00
6:15 AM,73.4,69.8,88,29.81,-9999.0,Calm,Calm,-,N/A,,Unknown,0,2013-06-26 10:15:00
6:35 AM,75.2,69.8,83,29.81,-9999.0,WNW,3.5,-,N/A,,Clear,300,2013-06-26 10:35:00
6:55 AM,77.0,69.8,78,29.81,-9999.0,NW,5.8,-,N/A,,Clear,320,2013-06-26 10:55:00
7:15 AM,77.0,69.8,78,29.82,-9999.0,NW,6.9,-,N/A,,Clear,310,2013-06-26 11:15:00
7:35 AM,78.8,69.8,74,29.82,-9999.0,WNW,4.6,-,N/A,,Clear,300,2013-06-26 11:35:00
7:55 AM,78.8,69.8,74,29.82,-9999.0,NW,3.5,-,N/A,,Clear,320,2013-06-26 11:55:00
8:15 AM,78.8,69.8,74,29.82,-9999.0,NW,4.6,-,N/A,,Clear,310,2013-06-26 12:15:00
8:35 AM,78.8,69.8,74,29.83,-9999.0,NW,9.2,-,N/A,,Clear,310,2013-06-26 12:35:00
8:55 AM,80.6,68.0,65,29.82,-9999.0,NW,9.2,-,N/A,,Clear,310,2013-06-26 12:55:00
9:15 AM,80.6,68.0,65,29.81,-9999.0,WNW,3.5,-,N/A,,Clear,300,2013-06-26 13:15:00
9:35 AM,82.4,66.2,58,29.82,-9999.0,West,5.8,-,N/A,,Partly Cloudy,280,2013-06-26 13:35:00
10:15 AM,82.4,68.0,62,29.83,-9999.0,West,4.6,-,N/A,,Partly Cloudy,280,2013-06-26 14:15:00
10:35 AM,82.4,68.0,62,29.82,-9999.0,WNW,5.8,-,N/A,,Partly Cloudy,290,2013-06-26 14:35:00
10:55 AM,82.4,68.0,62,29.82,-9999.0,West,5.8,-,N/A,,Partly Cloudy,270,2013-06-26 14:55:00
11:15 AM,80.6,69.8,70,29.83,-9999.0,SW,6.9,-,N/A,,Partly Cloudy,230,2013-06-26 15:15:00
11:35 AM,80.6,69.8,70,29.83,-9999.0,SW,9.2,-,N/A,,Partly Cloudy,230,2013-06-26 15:35:00
11:55 AM,78.8,69.8,74,29.83,-9999.0,SW,8.1,-,N/A,,Clear,220,2013-06-26 15:55:00
12:15 PM,80.6,69.8,70,29.84,-9999.0,West,9.2,-,N/A,,Partly Cloudy,260,2013-06-26 16:15:00
12:35 PM,78.8,69.8,74,29.83,-9999.0,WSW,8.1,-,N/A,,Partly Cloudy,250,2013-06-26 16:35:00
12:55 PM,80.6,69.8,70,29.83,-9999.0,SW,10.4,-,N/A,,Clear,230,2013-06-26 16:55:00
1:15 PM,78.8,69.8,74,29.84,-9999.0,WSW,8.1,-,N/A,,Partly Cloudy,250,2013-06-26 17:15:00
1:35 PM,78.8,69.8,74,29.83,-9999.0,West,6.9,-,N/A,,Partly Cloudy,280,2013-06-26 17:35:00
1:55 PM,78.8,69.8,74,29.84,-9999.0,West,10.4,16.1,N/A,,Partly Cloudy,270,2013-06-26 17:55:00
2:15 PM,78.8,68.0,69,29.82,-9999.0,WSW,4.6,-,N/A,,Clear,250,2013-06-26 18:15:00
2:35 PM,78.8,68.0,69,29.81,-9999.0,WSW,5.8,-,N/A,,Clear,250,2013-06-26 18:35:00
2:55 PM,80.6,69.8,70,29.82,-9999.0,WSW,6.9,-,N/A,,Clear,250,2013-06-26 18:55:00
3:15 PM,80.6,68.0,65,29.82,-9999.0,WSW,8.1,-,N/A,,Clear,250,2013-06-26 19:15:00
3:35 PM,80.6,68.0,65,29.82,-9999.0,West,5.8,-,N/A,,Clear,280,2013-06-26 19:35:00
3:55 PM,80.6,69.8,70,29.82,-9999.0,West,4.6,-,N/A,,Partly Cloudy,270,2013-06-26 19:55:00
4:15 PM,80.6,69.8,70,29.82,-9999.0,West,3.5,-,N/A,,Clear,280,2013-06-26 20:15:00
4:35 PM,80.6,69.8,70,29.82,-9999.0,Calm,Calm,-,N/A,,Clear,0,2013-06-26 20:35:00
4:55 PM,78.8,69.8,74,29.82,-9999.0,West,3.5,-,N/A,,Clear,280,2013-06-26 20:55:00
5:15 PM,78.8,69.8,74,29.82,-9999.0,Calm,Calm,-,N/A,,Clear,0,2013-06-26 21:15:00
5:35 PM,78.8,69.8,74,29.82,-9999.0,Calm,Calm,-,N/A,,Clear,0,2013-06-26 21:35:00
5:55 PM,78.8,69.8,74,29.83,-9999.0,Calm,Calm,-,N/A,,Clear,0,2013-06-26 21:55:00
6:15 PM,78.8,69.8,74,29.83,-9999.0,Calm,Calm,-,N/A,,Clear,0,2013-06-26 22:15:00
6:35 PM,77.0,71.6,83,29.84,-9999.0,Calm,Calm,-,N/A,,Light Drizzle,0,2013-06-26 22:35:00
6:55 PM,75.2,71.6,89,29.84,-9999.0,Calm,Calm,-,0.01,Rain,Light Rain,0,2013-06-26 22:55:00
7:15 PM,75.2,73.4,94,29.84,-9999.0,WSW,3.5,-,N/A,Rain,Light Rain,250,2013-06-26 23:15:00
7:35 PM,75.2,73.4,94,29.84,-9999.0,Calm,Calm,-,0.03,Rain,Light Rain,0,2013-06-26 23:35:00
7:55 PM,73.4,73.4,100,29.83,-9999.0,Calm,Calm,-,0.03,,Unknown,0,2013-06-26 23:55:00
8:15 PM,73.4,73.4,100,29.84,-9999.0,Calm,Calm,-,N/A,,Unknown,0,2013-06-27 00:15:00
8:35 PM,73.4,73.4,100,29.84,-9999.0,Calm,Calm,-,N/A,,Unknown,0,2013-06-27 00:35:00
8:55 PM,73.4,73.4,100,29.84,-9999.0,Calm,Calm,-,N/A,,Mostly Cloudy,0,2013-06-27 00:55:00
9:15 PM,73.4,73.4,100,29.84,-9999.0,Calm,Calm,-,N/A,,Unknown,0,2013-06-27 01:15:00
9:35 PM,71.6,71.6,100,29.86,-9999.0,Calm,Calm,-,N/A,,Unknown,0,2013-06-27 01:35:00
9:55 PM,71.6,71.6,100,29.85,-9999.0,SSW,4.6,-,N/A,,Unknown,210,2013-06-27 01:55:00
10:15 PM,71.6,71.6,100,29.85,-9999.0,Calm,Calm,-,N/A,,Mostly Cloudy,0,2013-06-27 02:15:00
10:35 PM,73.4,71.6,94,29.86,-9999.0,Calm,Calm,-,N/A,,Mostly Cloudy,0,2013-06-27 02:35:00
10:55 PM,71.6,71.6,100,29.86,-9999.0,Calm,Calm,-,N/A,,Mostly Cloudy,0,2013-06-27 02:55:00
11:15 PM,71.6,71.6,100,29.85,-9999.0,Calm,Calm,-,N/A,,Unknown,0,2013-06-27 03:15:00
11:35 PM,71.6,71.6,100,29.84,-9999.0,Calm,Calm,-,N/A,,Unknown,0,2013-06-27 03:35:00
11:55 PM,71.6,71.6,100,29.84,-9999.0,Calm,Calm,-,N/A,,Unknown,0,2013-06-27 03:55:00